Retour au catalogue

NULION

LostScienceVLEO
NORAD 57487·PAYLOAD·🇸🇬 Singapore

Lancé Jul 30, 2023 depuis Satish Dhawan Space Centre

Loading…

Prochains Passages (prochaines 24 heures)

TLE

PériméSource: Space-Track

Époque: Dec 7, 2023, 20:16 UTC

1 57487U 23109G   23341.84479313  .00001898  00000-0  48614-4 0  9991
2 57487   5.0074  10.1938 0003778 182.8478 177.1609 15.16285066 19791

Suivez NULION en temps réel avec AllMySat

Download on the App Store